Tracking 29093 objects as of 15-Jul-2024
HD Live streaming from Space Station
objects crossing your sky now

STARLINK-4303

Track STARLINK-4303 now!
10-day predictions
STARLINK-4303 is classified as:


NORAD ID: 53544
Int'l Code: 2022-101T
Perigee: 546.0 km
Apogee: 547.8 km
Inclination: 53.2 °
Period: 95.4 minutes
Semi major axis: 6917 km
RCS: Unknown
Launch date: August 19, 2022
Source: United States (US)
Launch site: AIR FORCE EASTERN TEST RANGE (AFETR)
Your satellite tracking list
Your tracking list is empty




NASA's NSSDC Master Catalog

Two Line Element Set (TLE):
1 53544U 22101T   24196.57260787  .00001373  00000-0  10435-3 0  9991
2 53544  53.2151 251.6217 0001289  89.2399 270.8741 15.08846068105926
Source of the keplerian elements: AFSPC